Regional Weather Roundup
Issued by NWS

Home | Current Version | Previous Version | Text Only | Print | Product List | Glossary Off
Versions: 1 2 3 4 5 6 7 8 9 10 11 12 13 14 15 16 17 18 19 20 21 22 23 24 25 26 27 28 29 30 31 32 33 34 35 36 37

000
ASUS45 KBOU 230507
RWRCO

WEATHER ROUNDUP FOR COLORADO
NATIONAL WEATHER SERVICE DENVER/BOULDER CO
1100 PM MDT WED OCT 22 2014

NOTE: "FAIR" INDICATES FEW OR NO CLOUDS BELOW 12000 FEET WITH NO
SIGNIFICANT WEATHER AND/OR OBSTRUCTIONS TO VISIBILITY.

COZ001>005-013-030-031-230600-
...NORTHWEST COLORADO...

CITY           SKY/WX    TMP DP  RH WIND       PRES   REMARKS
CRAIG          CLEAR     33  30  88 CALM      30.25S
HAYDEN         CLEAR     39  32  75 E12       30.25F
MEEKER         CLEAR     43  37  79 SE5       30.25S
MOUNT WERNER   NOT AVBL
STEAMBOAT SPGS CLEAR     38  32  77 CALM      30.27S
WALDEN         CLEAR     32  27  80 SE9       30.30S WCI  24
$$

COZ006>008-011-230600-
...WEST CENTRAL VALLEYS...

CITY           SKY/WX    TMP DP  RH WIND       PRES   REMARKS
GRAND JUNCTION CLEAR     48  37  65 SE3       30.18R
MONTROSE       PTCLDY    49  38  65 SE14      30.25R
EAGLE          CLEAR     41  39  93 CALM      30.31R
RIFLE          CLEAR     44  39  82 SE5       30.24R
DELTA          PTCLDY    51  37  59 NE7       30.22R
NUCLA          NOT AVBL
$$

COZ017>023-064>068-230600-
...SOUTHWEST COLORADO...

CITY           SKY/WX    TMP DP  RH WIND       PRES   REMARKS
DURANGO        CLEAR     42  36  79 N3        30.26R
CORTEZ         CLEAR     41  34  76 E5        30.24R
PAGOSA SPRINGS CLEAR     41  38  89 CALM      30.32R
TELLURIDE      CLEAR     43  33  68 SE5       30.40R
WOLF CREEK PAS CLEAR     32  32 100 SW10        N/A  WCI  24
$$

COZ009-010-012-014-032>034-037-058>063-230600-
...CENTRAL COLORADO...

CITY           SKY/WX    TMP DP  RH WIND       PRES   REMARKS
ASPEN          CLEAR     34  32  92 SW5       30.32R WCI  30
BUENA VISTA    PTCLDY    37  32  82 CALM      30.31R
COPPER MTN     PTCLDY    34  25  69 W10G17    30.47R WCI  26
BERTHOUD PASS  FAIR      27  23  86 NW24G30   30.46R WCI  12
COTTONWOOD PAS PTCLDY    43  28  56 NW5       30.37S
GUNNISON       CLEAR     39  32  75 CALM      30.34R
KREMMLING      CLEAR     36  32  87 CALM        N/A
LEADVILLE      PTCLDY    34  26  72 NE6       30.38R WCI  29
MONARCH PASS   CLOUDY    32  30  93 W18       30.56S WCI  20
SALIDA         CLOUDY    48  36  63 NW5       30.36R
SUNLIGHT       CLEAR     34  32  93 CALM      30.44S
WILKERSON PASS NOT AVBL
$$

COZ069>075-230600-
...SAN LUIS VALLEY/SANGRE DE CRISTO MOUNTAINS...

CITY           SKY/WX    TMP DP  RH WIND       PRES   REMARKS
ALAMOSA        CLEAR     39  32  76 W6        30.28R
LA VETA PASS   PTCLDY    39  30  70 SW3       30.38F
SAGUACHE       PTCLDY    46  32  57 N12       30.31R
$$

COZ035-036-038>040-230600-
...NORTHERN COLORADO FRONT RANGE...

CITY           SKY/WX    TMP DP  RH WIND       PRES   REMARKS
DENVER INTL AP MOCLDY    50  41  71 SW8       30.15R
DMNS CITY PARK   N/A     52  41  66 E3        30.15R
AURORA         PTCLDY    50  42  72 CALM      30.17R
FRONT RANGE AP MOCLDY    50  43  76 S8        30.16S
ERIE MUNI ARPT CLOUDY    56  33  41 W7        30.14R
BOULDER MUN AP CLOUDY    57  34  41 N7        30.15R
CENTENNIAL     CLOUDY    48  41  76 SE5       30.17R
BROOMFIELD     NOT AVBL
FORT COLLINS   PTCLDY    46  36  66 NW7       30.17R
LONGMONT       PTCLDY    53  40  61 N8        30.17R
$$

COZ041-046-047-076>085-087-088-230600-
...PIKES PEAK/PALMER DIVIDE AND SOUTHERN FOOTHILLS...

CITY           SKY/WX    TMP DP  RH WIND       PRES   REMARKS
COLO. SPRINGS  PTCLDY    47  39  74 N5        30.22R
A. F. ACADEMY  PTCLDY    42  38  86 N6        30.22S
ELLICOTT       NOT AVBL
FALCON         PTCLDY    43  38  83 CALM      30.24S
FORT CARSON    PTCLDY    49  40  70 NE1       30.19S
LIMON          CLOUDY    47  45  93 CALM      30.17S
MONUMENT HILL  MOCLDY    43  36  75 S6        30.22S
TRINIDAD       MOCLDY    56  41  57 SW5       30.16R
$$

COZ042>045-048>051-090-091-230600-
...NORTHEAST COLORADO...

CITY           SKY/WX    TMP DP  RH WIND       PRES   REMARKS
GREELEY ARPT   PTCLDY    48  34  57 NE8       30.14S
AKRON          CLEAR     49  33  54 SE6       30.13S
BURLINGTON     PTCLDY    48  41  76 SW5       30.12R
WRAY           CLEAR     46  32  58 CALM      30.10S
STERLING       CLEAR     43  37  81 CALM      30.12R
HOLYOKE        CLEAR     45  34  65 CALM      30.10S
FORT MORGAN    CLEAR     46  34  63 NE7       30.15S
$$

COZ086-089-092>099-230600-
...SOUTHEAST COLORADO...

CITY           SKY/WX    TMP DP  RH WIND       PRES   REMARKS
PUEBLO         PTCLDY    56  45  66 N6        30.13S
LA JUNTA       PTCLDY    56  47  71 SE7       30.10F
LAMAR          MOCLDY    54  47  77 CALM      30.08S
SPRINGFIELD      N/A     51  45  79 CALM      30.13S
$$



USA.gov is the U.S. government's official web portal to all federal, state and local government web resources and services.